Location: Observatory
(52.1446°N, 0.4624°W)
Time: 06:22:37
(UTC+00:00)

ISS - Pass Details

Date: 11 December 2017
Orbit: 403 x 407 km, 51.6° (Epoch: 12 December)

Event Time Altitude Azimuth Distance (km) Brightness Sun altitude
Rises 18:44:08 0° 282° (WNW) 2,332 1.2 -25.4°
Reaches altitude 10° 18:46:27 10° 268° (W) 1,468 0.0 -25.7°
Enters shadow 18:48:27 23° 234° (SW) 927 -1.5 -26.0°
